TimeCST,TemperatureF,Dew PointF,Humidity,Sea Level PressureIn,VisibilityMPH,Wind Direction,Wind SpeedMPH,Gust SpeedMPH,PrecipitationIn,Events,Conditions,WindDirDegrees,DateUTC
12:52 AM,28.9,24.1,82,30.22,-9999.0,WNW,10.4,-,N/A,,Unknown,300,2013-01-17 06:52:00
1:52 AM,28.9,25.0,85,30.24,-9999.0,NW,10.4,-,N/A,,Unknown,310,2013-01-17 07:52:00
2:52 AM,28.9,25.0,85,30.27,-9999.0,WNW,13.8,-,N/A,,Unknown,300,2013-01-17 08:52:00
3:52 AM,28.9,25.0,85,30.30,-9999.0,WNW,12.7,-,N/A,,Unknown,300,2013-01-17 09:52:00
4:52 AM,26.1,21.9,84,30.32,-9999.0,North,18.4,-,N/A,,Unknown,350,2013-01-17 10:52:00
5:52 AM,24.1,21.0,88,30.34,-9999.0,NNW,13.8,-,N/A,,Unknown,340,2013-01-17 11:52:00
6:52 AM,24.1,19.0,81,30.35,-9999.0,NNW,16.1,-,N/A,,Unknown,340,2013-01-17 12:52:00
7:52 AM,19.0,15.1,85,30.38,-9999.0,NNW,9.2,-,N/A,,Unknown,340,2013-01-17 13:52:00
8:52 AM,17.1,12.9,84,30.40,-9999.0,North,5.8,-,N/A,,Unknown,360,2013-01-17 14:52:00
9:52 AM,18.0,14.0,84,30.42,-9999.0,Calm,Calm,-,N/A,,Unknown,0,2013-01-17 15:52:00
10:52 AM,19.0,15.1,85,30.41,-9999.0,Calm,Calm,-,N/A,,Unknown,0,2013-01-17 16:52:00
11:52 AM,19.9,12.9,74,30.40,-9999.0,Calm,Calm,-,N/A,,Unknown,0,2013-01-17 17:52:00
12:52 PM,21.0,14.0,74,30.36,-9999.0,Calm,Calm,-,N/A,,Unknown,0,2013-01-17 18:52:00
1:52 PM,19.9,15.1,81,30.32,-9999.0,ESE,3.5,-,N/A,,Unknown,120,2013-01-17 19:52:00
2:52 PM,21.0,15.1,78,30.27,-9999.0,SE,6.9,-,N/A,,Unknown,140,2013-01-17 20:52:00
3:52 PM,21.0,15.1,78,30.25,-9999.0,SE,8.1,-,N/A,,Unknown,130,2013-01-17 21:52:00
4:52 PM,21.9,16.0,78,30.22,-9999.0,SE,10.4,-,N/A,,Unknown,130,2013-01-17 22:52:00
5:52 PM,21.0,17.1,85,30.19,-9999.0,ESE,13.8,-,N/A,,Unknown,120,2013-01-17 23:52:00
6:52 PM,21.9,17.1,82,30.17,-9999.0,ESE,11.5,-,N/A,,Unknown,120,2013-01-18 00:52:00
7:52 PM,21.9,19.0,89,30.12,-9999.0,SSE,11.5,-,N/A,,Unknown,150,2013-01-18 01:52:00
8:52 PM,23.0,21.0,92,30.07,-9999.0,South,8.1,-,N/A,,Unknown,170,2013-01-18 02:52:00
9:52 PM,25.0,21.9,88,30.00,-9999.0,South,10.4,-,N/A,,Unknown,170,2013-01-18 03:52:00
10:52 PM,26.1,24.1,92,29.93,-9999.0,South,6.9,-,N/A,,Unknown,190,2013-01-18 04:52:00
11:52 PM,28.9,26.1,89,29.91,-9999.0,SSW,8.1,-,N/A,,Unknown,200,2013-01-18 05:52:00